Location: Newark
(39.6867°N, 100.6772°W)
Time: 12:22:42
(UTC+00:00)

S-56A Canister/Altair - All Passes

Search period start: 19 October 2019 00:00
Search period end: 29 October 2019 00:00
Orbit: 633 x 2499 km, 38.9° (Epoch: 18 October)

Date Brightness Start Highest point End Pass type
(mag) Time Alt. Az. Time Alt. Az. Time Alt. Az.
19 Oct - 08:28:57 10° SSW 08:34:00 34° SE 08:41:03 10° E visible
19 Oct - 10:30:55 10° WSW 10:37:38 78° SSE 10:48:08 10° E visible
19 Oct - 12:34:17 10° W 12:42:47 83° S 12:55:42 10° ESE daylight
19 Oct - 14:38:16 10° W 14:48:24 56° SSW 15:02:15 10° SE daylight
19 Oct - 16:44:11 10° W 16:53:43 26° SW 17:04:47 10° S daylight
20 Oct - 07:56:57 10° SSW 08:01:29 27° SE 08:07:30 10° E visible
20 Oct - 09:58:33 10° WSW 10:04:48 74° SSE 10:14:28 10° E visible
20 Oct - 12:01:45 10° W 12:09:40 84° S 12:21:52 10° E visible
20 Oct - 14:05:33 10° W 14:15:07 59° SSW 14:28:41 10° SE daylight
20 Oct - 16:10:56 10° W 16:20:27 29° SW 16:31:56 10° SSE daylight
21 Oct - 07:25:04 10° S 07:29:00 22° SE 07:33:57 10° E visible
21 Oct - 09:26:12 10° WSW 09:32:01 68° SSE 09:40:53 10° E visible
21 Oct - 11:29:16 10° W 11:36:38 85° S 11:48:05 10° E visible
21 Oct - 13:32:53 10° W 13:41:54 62° SSW 13:55:04 10° SE daylight
21 Oct - 15:37:50 10° W 15:47:12 31° SW 15:58:55 10° SSE daylight
22 Oct - 06:53:21 10° S 06:56:34 17° SE 07:00:20 10° E night (unlit)
22 Oct - 08:53:54 10° WSW 08:59:20 62° SSE 09:07:23 10° E visible
22 Oct - 10:56:50 10° W 11:03:39 86° S 11:14:20 10° E visible
22 Oct - 13:00:17 10° W 13:08:44 65° SSW 13:21:24 10° ESE daylight
22 Oct - 15:04:50 10° W 15:13:58 34° SW 15:25:48 10° SSE daylight
23 Oct - 06:21:57 10° SSE 06:24:08 13° SE 06:26:29 10° ESE night (unlit)
23 Oct - 08:21:38 10° SW 08:26:42 54° SSE 08:33:59 10° E visible
23 Oct - 10:24:25 10° W 10:30:46 86° S 10:40:39 10° E visible
23 Oct - 12:27:45 10° W 12:35:39 68° SSW 12:47:42 10° ESE visible
23 Oct - 14:31:59 10° W 14:40:46 36° SSW 14:52:34 10° SSE daylight
23 Oct - 16:42:01 10° WSW 16:45:38 12° SW 16:49:30 10° SSW daylight
24 Oct - 07:49:23 10° SW 07:54:08 47° SSE 08:00:39 10° E visible
24 Oct - 09:52:01 10° W 09:57:56 85° S 10:07:03 10° E visible
24 Oct - 11:55:15 10° W 12:02:38 71° SSW 12:14:01 10° ESE visible
24 Oct - 13:59:13 10° W 14:07:37 38° SSW 14:19:15 10° SSE daylight
24 Oct - 16:07:31 10° WSW 16:12:30 13° SW 16:18:03 10° SSW daylight
25 Oct - 07:17:11 10° SW 07:21:36 40° SSE 07:27:24 10° E night (unlit)
25 Oct - 09:19:39 10° W 09:25:11 83° S 09:33:32 10° E visible
25 Oct - 11:22:49 10° W 11:29:40 74° SSW 11:40:21 10° ESE visible
25 Oct - 13:26:32 10° W 13:34:31 41° SSW 13:45:53 10° SE daylight
25 Oct - 15:33:41 10° WSW 15:39:24 15° SW 15:45:56 10° SSW daylight
26 Oct - 06:45:00 10° SW 06:49:08 33° SSE 06:54:14 10° E night (unlit)
26 Oct - 08:47:17 10° WSW 08:52:29 80° S 09:00:06 10° E visible
26 Oct - 10:50:23 10° W 10:56:47 76° SSW 11:06:43 10° ESE visible
26 Oct - 12:53:55 10° W 13:01:28 43° SSW 13:12:27 10° SE daylight
26 Oct - 15:00:14 10° WSW 15:06:18 17° SW 15:13:30 10° S daylight
27 Oct - 06:12:51 10° SSW 06:16:40 27° SSE 06:21:07 10° E night (unlit)
27 Oct - 08:14:56 10° WSW 08:19:51 76° SSE 08:26:48 10° E visible
27 Oct - 10:17:59 10° W 10:23:58 79° S 10:33:09 10° ESE visible
27 Oct - 12:21:23 10° W 12:28:30 46° SSW 12:39:01 10° SE visible
27 Oct - 14:27:01 10° WSW 14:33:14 19° SW 14:40:50 10° S daylight
28 Oct - 05:40:44 10° SSW 05:44:13 22° SE 05:48:03 10° E night (unlit)
28 Oct - 07:42:34 10° WSW 07:47:15 71° SSE 07:53:35 10° E visible
28 Oct - 09:45:36 10° W 09:51:12 81° S 09:59:39 10° ESE visible
28 Oct - 11:48:53 10° W 11:55:34 48° SSW 12:05:34 10° SE visible
28 Oct - 13:54:00 10° WSW 14:00:12 20° SW 14:08:01 10° S daylight
